Location: Highridge
(54.0333°N, 114.1333°W)
Time: 12:26:13
(UTC+00:00)

Oscar 19 - Pass Details

Date: 03 December 2023
Orbit: 771 x 789 km, 98.9° (Epoch: 01 March)

Event Time Altitude Azimuth Distance (km) Brightness Sun altitude
Rises 01:01:56 0° 223° (SW) 3,239 15.0 -14.3°
Reaches altitude 10° 01:05:48 10° 253° (WSW) 2,319 14.5 -14.8°
Maximum altitude 01:07:50 12° 277° (W) 2,168 14.0 -15.1°
Drops below altitude 10° 01:09:51 10° 300° (WNW) 2,327 13.7 -15.4°
Sets 01:13:47 0° 330° (NNW) 3,264 14.0 -15.9°
